Skip Page Navigation
NASA JPL Caltech
NASA Logo - Jet Propulsion Laboratory + View the NASA Portal
+ Center for Near-Earth Object Studies
JPL Home Earth Solar System Stars & Galaxies Technology
JPL Solar System Dynamics
BODIES ORBITS EPHEMERIDES TOOLS PHYSICAL DATA DISCOVERY FAQ SITE MAP
JPL Small-Body Database Browser
Search: [ help ]  
442026 (2010 OZ119)
Classification: Main-belt Asteroid          SPK-ID: 2442026
Ephemeris | Orbit Diagram | Orbital Elements | Mission Design | Physical Parameters | Discovery Circumstances | Close-Approach Data ]

[ show orbit diagram ]
Orbital Elements at Epoch 2459000.5 (2020-May-31.0) TDB
Reference: JPL 17 (heliocentric ecliptic J2000)
 Element Value Uncertainty (1-sigma)   Units 
e .1549559644352819 1.4284e-07  
a 3.113889798017874 6.9374e-08 au
q 2.63137400122083 4.7454e-07 au
i 17.36320859121563 1.1459e-05 deg
node 14.41786256489953 2.0281e-05 deg
peri 328.483872344583 3.5456e-05 deg
M 310.9054272962142 2.5297e-05 deg
tp 2459274.205968926272
(2021-Feb-28.70596893)
0.00014458 TDB
period 2007.027322713815
5.49
6.7072e-05
1.836e-07
d
yr
n .1793697554217765 5.9943e-09 deg/d
Q 3.596405594814919 8.0124e-08 au
  Orbit Determination Parameters
   # obs. used (total)      135  
   data-arc span      6695 days (18.33 yr)  
   first obs. used      2001-01-26  
   last obs. used      2019-05-27  
   planetary ephem.      DE431  
   SB-pert. ephem.      SB431-N16  
   condition code      0  
   norm. resid. RMS      .46061  
   source      ORB  
   producer      Otto Matic  
   solution date      2020-Feb-26 10:39:06  

Additional Information
 Earth MOID = 1.64099 au 
 Jupiter MOID = 1.89964 au 
 T_jup = 3.130 
[ show covariance matrix ]

Ephemeris | Orbit Diagram | Orbital Elements | Mission Design | Physical Parameters | Discovery Circumstances | Close-Approach Data ]

Physical Parameter Table
Parameter Symbol Value Units Sigma Reference Notes
absolute magnitude H 16.1   n/a MPO440829  
diameter diameter 3.386 km 0.872 urn:nasa:pds:neowise_diameters_albedos::2.0[mainbelt] (http://adsabs.harvard.edu/abs/2011ApJ...741...68M)  
geometric albedo albedo 0.051   0.023 urn:nasa:pds:neowise_diameters_albedos::2.0[mainbelt] (http://adsabs.harvard.edu/abs/2011ApJ...741...68M)  

442026 (2010 OZ119)          Discovered 2010-Jul-31 by WISE at WISE
Reference: Last Updated: 2015-09-02

[ show close-approach data ]
Ephemeris | Orbit Diagram | Orbital Elements | Mission Design | Physical Parameters | Discovery Circumstances | Close-Approach Data ]
ABOUT SSD CREDITS/AWARDS PRIVACY/COPYRIGHT GLOSSARY LINKS
FirstGov 2020-Oct-21 05:48 UT
(server date/time)  
NASA Home Page
Site Manager:   Ryan S. Park
Webmaster  Alan B. Chamberlin